Orbital Elements at Epoch 2459200.5 (2020-Dec-17.0) TDB
Reference: JPL 21 (heliocentric ecliptic J2000)
Element | Value | Uncertainty (1-sigma) | Units |
e | .1836880785923212 | 3.9202e-08 | |
a | 2.768312140100105 | 2.066e-08 | au |
q | 2.25980620214132 | 1.1009e-07 | au |
i | 7.9194860710944 | 5.024e-06 | deg |
node | 140.0821349296187 | 3.4693e-05 | deg |
peri | 299.0311496211983 | 3.8219e-05 | deg |
M | 165.3360498504549 | 1.9416e-05 | deg |
tp | 2458427.844199275891 (2018-Nov-05.34419928) | 8.5895e-05 | TDB |
period | 1682.368052897533 4.61 | 1.8833e-05 5.156e-08 | d yr |
n | .213984091875719 | 2.3954e-09 | deg/d |
Q | 3.27681807805889 | 2.4455e-08 | au |
|
| | Orbit Determination Parameters
Additional Information
|